Regional Weather Roundup
Issued by NWS Huntsville, AL

Home | Current Version | Previous Version | Text Only | Print | Product List | Glossary On
Versions: 1 2 3 4 5 6 7 8 9 10 11 12 13 14 15 16 17 18 19 20 21 22 23 24 25 26 27
000
ASUS44 KHUN 010110
RWRHUN

WEATHER ROUNDUP FOR THE TENNESSEE VALLEY
NATIONAL WEATHER SERVICE HUNTSVILLE AL
800 PM CDT SAT APR 30 2016

ALZ001>004-010200-
NORTHWEST ALABAMA

CITY           SKY/WX    TMP DP  RH WIND       PRES   REMARKS
COURTLAND HCN    N/A     68 N/A N/A CALM        N/A
RUSSELLVILLE     N/A     68 N/A N/A MISG        N/A
SHOALS AIRPORT NOT AVBL
SHOALS TVA RES   N/A     68 N/A N/A MISG        N/A
$$

ALZ005>007-016-010200-
NORTH CENTRAL ALABAMA

CITY           SKY/WX    TMP DP  RH WIND       PRES   REMARKS
CULLMAN AG STN   N/A     73 N/A N/A CALM        N/A
DECATUR AP     CLOUDY    67  66  97 N3        29.86R
HUNTSVILLE AP  CLOUDY    73  66  78 E5        29.86S
HUN NWS/UAH      N/A     74  65  74 SE1         N/A
MERIDIANVILLE  CLOUDY    68  61  77 CALM      29.88R
REDSTONE ARSN  CLOUDY    72  67  83 CALM      29.86S
VINEMONT AP    FAIR      73  65  77 S5        29.89S
$$

ALZ008>010-010200-
NORTHEAST ALABAMA

CITY           SKY/WX    TMP DP  RH WIND       PRES   REMARKS
ALBERTVILLE    MOCLDY    73  70  88 S6        29.88F
FORT PAYNE     CLOUDY    73  61  64 CALM      29.89F
SCOTTSBORO AP  CLOUDY    73  66  78 CALM      29.89S
SCOTTSBORO HCN   N/A     72 N/A N/A MISG        N/A
VALLEY HEAD      N/A     72 N/A N/A MISG        N/A
$$

TNZ076-096-097-010200-
SOUTHEASTERN MIDDLE TENNESSEE

CITY           SKY/WX    TMP DP  RH WIND       PRES   REMARKS
TULLAHOMA      CLEAR     66  66 100 CALM      29.91R
WINCHESTER     CLEAR     70  64  83 VRB3      29.90S
$$

...SURROUNDING SITES...

CITY           SKY/WX    TMP DP  RH WIND       PRES   REMARKS
ATLANTA        CLOUDY    70  63  78 S7        29.98R THUNDER
ANNISTON       CLOUDY    74  66  76 SW3       29.91F
BIRMINGHAM     CLOUDY    77  67  71 SE21G28   29.82F
CHATTANOOGA    CLOUDY    69  65  86 NE10      29.92R
DALTON         CLOUDY    68  68 100 SE7       29.94R
GADSDEN        CLOUDY    77  67  71 SW5       29.89F
GOLDEN TRNGL   NOT AVBL
HALEYVILLE     CLOUDY    71  67  87 S3        29.88R
JACKSON TN     CLEAR     69  64  84 SE5       29.84S
MEMPHIS        PTCLDY    72  63  73 CALM      29.82R
NASHVILLE      LGT RAIN  69  66  90 S5        29.88R
OXFORD MS      FAIR      66  64  94 NE5       29.84S
ROME           CLOUDY    73  64  73 NE3       29.91R
SAVANNAH       CLOUDY    68  68 100 CALM      29.85R
TUPELO         CLOUDY    71  68  90 SE5       29.82S
TUSCALOOSA     CLOUDY    76  69  79 SE12G22   29.81R
$$

...GULF COAST WEATHER...

CITY           SKY/WX    TMP DP  RH WIND       PRES   REMARKS
GULFPORT       CLOUDY    72  66  81 VRB5      29.84F
PASCAGOULA     LGT RAIN  69  67  93 CALM      29.87F
MOBILE         TSTM      67  67 100 SE13      29.94F FOG
GULF SHORES    CLOUDY    74  74 100 E10       29.92S
DESTIN         MOCLDY    78  74  87 SE6       29.95R
PANAMA CITY    CLOUDY    75  73  94 SE5       29.95R
APPALACHICOLA  PTCLDY    76  72  87 S8        29.94R
$$





USA.gov is the U.S. government's official web portal to all federal, state and local government web resources and services.